This is the latest recevied weather packets stored in our database for station/object KG7MRB. If no packets are shown the sender has not sent any weather packets the latest 10 day(s).
| Time | Temp. | Humidity | Pressure | Rain* | Wind** | Luminosity | Snow |
|---|---|---|---|---|---|---|---|
| 1777685220 | 23.33° C | 50% | 1032.7 hPa | 0 mm | - | 60 W/m² | - |
| 1777684918 | 23.89° C | 48% | 1032.6 hPa | 0 mm | - | 86 W/m² | - |
| 1777684614 | 23.89° C | 49% | 1032.5 hPa | 0 mm | - | 109 W/m² | - |
| 1777684310 | 23.89° C | 46% | 1032.5 hPa | 0 mm | - | 119 W/m² | - |
| 1777684008 | 23.89° C | 50% | 1032.6 hPa | 0 mm | - | 149 W/m² | - |
| 1777683704 | 23.89° C | 49% | 1032.3 hPa | 0 mm | - | 171 W/m² | - |
| 1777683402 | 23.89° C | 46% | 1032.6 hPa | 0 mm | - | 135 W/m² | - |
| 1777683099 | 23.89° C | 50% | 1032.6 hPa | 0 mm | - | 129 W/m² | - |
| 1777682795 | 23.89° C | 48% | 1032.5 hPa | 0 mm | - | 161 W/m² | - |
| 1777682492 | 23.89° C | 48% | 1032.4 hPa | 0 mm | - | 159 W/m² | - |
| 1777682190 | 24.44° C | 48% | 1032.6 hPa | 0 mm | - | 137 W/m² | - |
| 1777681887 | 24.44° C | 46% | 1032.6 hPa | 0 mm | - | 160 W/m² | - |
| 1777681582 | 24.44° C | 47% | 1032.6 hPa | 0 mm | - | 145 W/m² | - |
| 1777681280 | 25° C | 46% | 1032.7 hPa | 0 mm | - | 142 W/m² | - |
| 1777680978 | 24.44° C | 47% | 1032.6 hPa | 0 mm | - | 139 W/m² | - |
| 1777680675 | 25° C | 44% | 1032.5 hPa | 0 mm | - | 116 W/m² | - |
| 1777680373 | 25.56° C | 44% | 1032.7 hPa | 0 mm | - | 369 W/m² | - |
| 1777680070 | 25° C | 44% | 1032.6 hPa | 0 mm | - | 373 W/m² | - |
| 1777679766 | 25° C | 46% | 1032.6 hPa | 0 mm | - | 385 W/m² | - |
| 1777679462 | 25.56° C | 45% | 1032.7 hPa | 0 mm | - | 376 W/m² | - |
| 1777679157 | 25° C | 45% | 1032.8 hPa | 0 mm | - | 379 W/m² | - |
| 1777678855 | 25° C | 43% | 1032.9 hPa | 0 mm | - | 365 W/m² | - |
| 1777678554 | 25° C | 44% | 1032.8 hPa | 0 mm | - | 419 W/m² | - |
| 1777678250 | 25° C | 42% | 1032.9 hPa | 0 mm | - | 426 W/m² | - |
| 1777677946 | 25° C | 44% | 1032.9 hPa | 0 mm | - | 381 W/m² | - |
* Rain latest hour (hover to see other rain measurements)
** Current wind speed in m/s (hover to see current wind gust speed)